Location: *
(50.6089°N, 2.2719°E)
Time: 20:11:45
(UTC+00:00)

Cosmos 1461 - Pass Details

Date: 18 October 2019
Orbit: 524 x 644 km, 65.0° (Epoch: 12 November)

Event Time Altitude Azimuth Distance (km) Brightness Sun altitude
Rises 17:54:52 0° 321° (NW) 2,693 6.9 -10.5°
Reaches altitude 10° 17:57:05 10° 327° (NNW) 1,811 5.9 -10.8°
Maximum altitude 18:01:03 52° 44° (NE) 696 3.0 -11.4°
Enters shadow 18:04:28 14° 119° (ESE) 1,608 4.7 -12.0°
